Regional Weather Roundup
Issued by NWS

Home | Current Version | Previous Version | Text Only | Print | Product List | Glossary On
Versions: 1 2 3 4 5 6 7 8 9 10 11 12 13 14 15 16 17 18 19 20 21 22 23 24 25 26 27 28 29 30 31 32 33 34 35 36 37 38 39 40 41 42 43 44 45 46 47 48 49 50
000
ASUS43 KDTX 061201
RWRMI
MICHIGAN HOURLY REGIONAL WEATHER ROUNDUP
NATIONAL WEATHER SERVICE DETROIT/PONTIAC MI
700 AM EST SAT FEB 06 2016

NOTE: "FAIR" INDICATES FEW OR NO CLOUDS BELOW 12,000 FEET WITH NO
SIGNIFICANT WEATHER AND/OR OBSTRUCTION TO VISIBILITY.

MIZ047>049-052>055-059>063-066>070-074>076-081>083-061300-
SOUTHEAST LOWER MICHIGAN

CITY           SKY/WX    TMP DP  RH WIND       PRES   REMARKS
ADRIAN         CLEAR     28  20  71 W3        30.29R
6HR MIN TEMP:  26; 6HR MAX TEMP:  36;

ALMA           CLOUDY    25  22  89 S6        30.23F WCI  18
ANN ARBOR      CLEAR     19  16  88 SW3       30.27S
BAD AXE        CLOUDY    25  20  82 SW8       30.22S WCI  16
CARO           CLOUDY    24  20  85 SW8       30.23S WCI  15
DETROIT CITY   MOCLDY    25  18  74 W7        30.28S WCI  17
6HR MIN TEMP:  25; 6HR MAX TEMP:  32;

DETROIT        PTCLDY    25  20  81 SW7       30.29S WCI  17
6HR MIN TEMP:  25; 6HR MAX TEMP:  32;

FLINT          CLOUDY    27  19  72 SW8       30.25S WCI  19
6HR MIN TEMP:  24; 6HR MAX TEMP:  30;

GROSSE ILE     CLEAR     27  21  80 CALM      30.28R
HILLSDALE      CLEAR     21  21  97 W5        30.26R FOG     WCI  15
6HR MIN TEMP:  21; 6HR MAX TEMP:  24;

HOWELL         CLOUDY    24  22  91 SW7       30.25S WCI  16
6HR MIN TEMP:  22; 6HR MAX TEMP:  27;


CITY           SKY/WX    TMP DP  RH WIND       PRES   REMARKS
JACKSON        CLOUDY    25  21  85 SW7       30.26S FOG     WCI  17
6HR MIN TEMP:  22; 6HR MAX TEMP:  25;

LAMBERTVILLE   CLEAR     24  21  87 CALM      30.30S
6HR MIN TEMP:  24; 6HR MAX TEMP:  30;

LANSING        CLOUDY    24  20  84 SW8       30.26S WCI  15
6HR MIN TEMP:  20; 6HR MAX TEMP:  25;

LAPEER         FAIR      23  19  85 SW6       30.24S WCI  16
6HR MIN TEMP:  23; 6HR MAX TEMP:  30;

MASON          CLOUDY    25  22  88 W3        30.26S
MONROE         CLEAR     25  22  88 SW3       30.29S
MT. CLEMENS    MOCLDY    25  19  77 W6        30.26R WCI  18
6HR MIN TEMP:  25; 6HR MAX TEMP:  32; 6HR PCP: TRACE;

PONTIAC        MOCLDY    23  19  85 W6        30.24S WCI  16
6HR MIN TEMP:  22; 6HR MAX TEMP:  29;

PORT HOPE        N/A     25  20  81 SW9G17    30.19S WCI  15
6HR MIN TEMP:  25; 6HR MAX TEMP:  28;

PORT HURON     CLEAR     25  19  80 W3        30.27R
TRI CITIES     CLOUDY    26  18  71 S9        30.23F WCI  17
6HR MIN TEMP:  24; 6HR MAX TEMP:  28;

MIDLAND        CLOUDY    25  18  74 SW3       30.22S
6HR MIN TEMP:  24; 6HR MAX TEMP:  27;

TROY           CLOUDY    26  21  80 SW3       30.28S
SAGINAW HB     CLOUDY    27  21  80 SW10      30.24S WCI  17
$$
MIZ043>046-050>051-056>058-064>065-071>073-077>080-061300-
SOUTHWEST LOWER MICHIGAN

CITY           SKY/WX    TMP DP  RH WIND       PRES   REMARKS
BATTLE CREEK   CLOUDY    24  21  88 SW7       30.27S FOG     WCI  16
6HR MIN TEMP:  20; 6HR MAX TEMP:  24;

BENTON HARBOR  CLOUDY    26  23  88 S6        30.28F FOG     WCI  19
6HR MIN TEMP:  25; 6HR MAX TEMP:  27;

BIG RAPIDS     CLOUDY    28  22  79 SW9       30.18S WCI  19
6HR MIN TEMP:  21; 6HR MAX TEMP:  28;

COLDWATER      CLEAR     19  18  99 CALM      30.28S FOG
6HR MIN TEMP:  19; 6HR MAX TEMP:  24;

FREMONT        CLOUDY    26  21  83 CALM      30.21S
HOLLAND        CLOUDY    31  24  75 SW10      30.26S WCI  22
6HR MIN TEMP:  18; 6HR MAX TEMP:  31;

GRAND RAPIDS   CLOUDY    27  24  89 S8        30.24F WCI  19
6HR MIN TEMP:  19; 6HR MAX TEMP:  27;

IONIA          CLOUDY    26  23  89 SW8       30.24S WCI  17
6HR MIN TEMP:  19; 6HR MAX TEMP:  26;

KALAMAZOO      CLOUDY    24  21  88 SW7       30.28S FOG     WCI  16
6HR MIN TEMP:  21; 6HR MAX TEMP:  24;

LUDINGTON      CLOUDY    32  21  63 W13G20    30.19S WCI  22
6HR MIN TEMP:  19; 6HR MAX TEMP:  32;

MARSHALL       CLOUDY    24  21  89 SW5       30.27S WCI  18
6HR MIN TEMP:  21; 6HR MAX TEMP:  25;

MOUNT PLEASANT CLOUDY    27  19  71 SW6       30.20F WCI  21
6HR MIN TEMP:  25; 6HR MAX TEMP:  27;

MUSKEGON       CLOUDY    33  22  63 SW8       30.23F WCI  26
6HR MIN TEMP:  22; 6HR MAX TEMP:  33;

SOUTH HAVEN    CLOUDY    27  25  95 SW5       30.27S FOG     WCI  21
$$
MIZ016>042-061300-
NORTHERN LOWER MICHIGAN

CITY           SKY/WX    TMP DP  RH WIND       PRES   REMARKS
ALPENA         CLOUDY    23  16  74 S8        30.12F WCI  14
6HR MIN TEMP:  17; 6HR MAX TEMP:  23;

BEAVER ISLAND  LGT SNOW  28  24  86 W23       30.08S WCI  13
6HR MIN TEMP:  28; 6HR MAX TEMP:  31;

BELLAIRE       FLURRIES  28  21  76 SW5       30.14S WCI  23
6HR MIN TEMP:  22; 6HR MAX TEMP:  28;

CADILLAC       CLOUDY    25  20  83 SW9       30.12S WCI  15
CHARLEVOIX     LGT SNOW  30  27  88 W13G24    30.12F WCI  20
6HR MIN TEMP:  26; 6HR MAX TEMP:  31;

FRANKFORT      CLOUDY    32  22  67 W13G24    30.15S WCI  22
GAYLORD        CLOUDY    24  18  77 SW13      30.08F WCI  12
6HR MIN TEMP:  19; 6HR MAX TEMP:  24;

GRAYLING       CLOUDY    24  19  80 SW8       30.13S WCI  15
6HR MIN TEMP:  17; 6HR MAX TEMP:  24;

HARBOR SPRINGS LGT SNOW  27  24  89 SW10      30.09S WCI  17
HOUGHTON LAKE  CLOUDY    23  17  78 SW8       30.15S WCI  14
6HR MIN TEMP:  19; 6HR MAX TEMP:  23;

MANISTEE       CLOUDY    32  19  59 W13G22    30.17F WCI  22
OSCODA         CLOUDY    24  18  77 SW7       30.17F WCI  16
6HR MIN TEMP:  22; 6HR MAX TEMP:  24;

PELLSTON       LGT SNOW  29  24  82 W15G21    30.07F WCI  18
6HR MIN TEMP:  24; 6HR MAX TEMP:  29; 6HR PCP: TRACE;

ROGERS CITY    CLOUDY    25  19  76 SW9       30.10S WCI  15
TRAVERSE CITY  FLURRIES  28  20  71 SW7       30.13F WCI  21
6HR MIN TEMP:  24; 6HR MAX TEMP:  29; 6HR PCP: TRACE;

$$
MIZ007>008-015-061300-
EASTERN UPPER MICHIGAN

CITY           SKY/WX    TMP DP  RH WIND       PRES   REMARKS
KINROSS        CLOUDY    25  23  93 W10G16    30.03F WCI  15
6HR MIN TEMP:  21; 6HR MAX TEMP:  27;

MACKINAC ISLAN LGT SNOW  28  28 100 SW20G31   30.05F WCI  15
6HR MIN TEMP:  24; 6HR MAX TEMP:  29;

NEWBERRY       CLOUDY    23  19  85 SW12      30.03S WCI  12
6HR MIN TEMP:  23; 6HR MAX TEMP:  25;

S. S. MARIE    CLOUDY    25  20  81 SW12      30.02S WCI  14
6HR MIN TEMP:  20; 6HR MAX TEMP:  25; 6HR PCP:  0.06;

$$
MIZ004>006-011>014-085-061300-
CENTRAL UPPER MICHIGAN

CITY           SKY/WX    TMP DP  RH WIND       PRES   REMARKS
MANISTIQUE     CLOUDY    25  18  74 W6        30.06F WCI  18
6HR MIN TEMP:  25; 6HR MAX TEMP:  27;

ESCANABA       CLOUDY    25  18  74 SW6       30.09S WCI  18
6HR MIN TEMP:  25; 6HR MAX TEMP:  25;

MENOMINEE      CLOUDY    25  19  80 W6        30.12S WCI  18
6HR MIN TEMP:  21; 6HR MAX TEMP:  25;

SAWYER-GWINN   CLOUDY    21  18  86 W7        30.03R WCI  13
$$
MIZ001>003-009>011-084-061300-
WESTERN UPPER MICHIGAN

CITY           SKY/WX    TMP DP  RH WIND       PRES   REMARKS
IRON MOUNTAIN  CLOUDY    23  16  74 W8        30.05S WCI  14
6HR MIN TEMP:  23; 6HR MAX TEMP:  25;

HOUGHTON       CLOUDY    25  19  78 W15G23    29.99S WCI  13
6HR MIN TEMP:  24; 6HR MAX TEMP:  25; 6HR PCP: TRACE;

COPPER HARBOR    N/A     30  23  75 N15       30.00R WCI  19
6HR MIN TEMP:  27; 6HR MAX TEMP:  30;

IRONWOOD       CLOUDY    21  19  93 SW9       30.02F WCI  11
6HR MIN TEMP:  21; 6HR MAX TEMP:  21;

$$

ABBREVIATIONS USED IN REMARKS
   TC - TEMPERATURE IN CELSIUS
  WCI - WIND CHILL INDEX
   HX - HEAT INDEX
  VSB - VISIBILITY




USA.gov is the U.S. government's official web portal to all federal, state and local government web resources and services.